Winnipeg, Manitoba

11:09 AM CDT on August 19, 2017 (GMT -0500)
Winnipeg International Airport

Weather History for CYWG - September, 2013

Change the Weather History Date:

Friday, September 6, 2013

  Actual Average Record
Temperature  
Mean Temperature 78 °F -  
Max Temperature 91 °F 62 °F 91 °F (2013)
Min Temperature 64 °F 41 °F 39 °F (1999)
Cooling Degree Days 12    
Growing Degree Days 28 (Base 50)    
Moisture  
Dew Point 63 °F    
Average Humidity 67    
Maximum Humidity 96    
Minimum Humidity 46    
Precipitation  
Precipitation 0.00 in 0.06 in - ()
Sea Level Pressure  
Sea Level Pressure 29.88 in    
Wind  
Wind Speed 8 mph ()    
Max Wind Speed 14 mph    
Max Gust Speed 20 mph    
Visibility 15.0 miles    
Events      
Averages and records for this station are not official NWS values.
T = Trace of Precipitation, MM = Missing Value Source: Averaged Metar Reports

Daily Weather History Graph

Daily Weather History Graph

Search for Another Location

Airport or City:

Trip Planner

Search our weather history database for the weather conditions in past years. The results will help you decide how hot, cold, wet, or windy it might be!

Date:

Astronomy

Sep. 06, 2013 Rise Set
Actual Time 6:51 AM CDT 8:01 PM CDT
Civil Twilight 6:18 AM CDT 8:34 PM CDT
Nautical Twilight 5:38 AM CDT 9:14 PM CDT
Astronomical Twilight 4:55 AM CDT 9:56 PM CDT
Moon 8:18 AM CDT (9/6) 8:11 PM CDT (9/6)
Length of Visible Light 14h 15m
Length of Day
13h 09m
New Moon, 2% of the Moon is Illuminated
Sep 6
New Moon
Sep 12
First Quarter
Sep 19
Full
Sep 26
Last Quarter
Oct 4
New

Hourly Weather History & Observations

Time (CDT) Temp. Heat Index Dew Point Humidity Pressure Visibility Wind Dir Wind Speed Gust Speed Precip Events Conditions
12:00 AM 69.8 °F - 60.8 °F 73% 29.93 in 15.0 mi South 10.4 mph - N/A   Partly Cloudy
1:00 AM 70 °F - 63 °F 73% 29.91 in - Calm Calm - -  
1:00 AM 69.8 °F - 60.8 °F 73% 29.92 in 15.0 mi South 10.4 mph - N/A   Scattered Clouds
2:00 AM 69.8 °F - 62.6 °F 78% 29.92 in 15.0 mi South 10.4 mph - N/A   Mostly Cloudy
3:00 AM 69.8 °F - 62.6 °F 78% 29.90 in 15.0 mi South 10.4 mph - N/A   Scattered Clouds
4:00 AM 69.8 °F - 62.6 °F 78% 29.88 in 15.0 mi SSW 10.4 mph - N/A   Mostly Cloudy
5:00 AM 66.2 °F - 62.6 °F 88% 29.88 in 15.0 mi South 6.9 mph - N/A   Partly Cloudy
6:00 AM 64.4 °F - 60.8 °F 88% 29.88 in 15.0 mi South 6.9 mph - N/A   Partly Cloudy
7:00 AM 65 °F - 64 °F 96% 29.87 in - Calm Calm - -  
7:00 AM 64.4 °F - 62.6 °F 94% 29.87 in 15.0 mi South 6.9 mph - N/A   Scattered Clouds
8:00 AM 68.0 °F - 62.6 °F 83% 29.87 in 15.0 mi South 9.2 mph - N/A   Mostly Cloudy
9:00 AM 71.6 °F - 64.4 °F 78% 29.87 in 15.0 mi SSW 9.2 mph - N/A   Scattered Clouds
10:00 AM 75.2 °F - 66.2 °F 73% 29.87 in 15.0 mi South 2.3 mph - N/A   Mostly Cloudy
11:00 AM 78.8 °F - 66.2 °F 65% 29.86 in 15.0 mi SSW 3.5 mph - N/A   Overcast
12:00 PM 82.4 °F 85.4 °F 68.0 °F 62% 29.86 in 15.0 mi SSW 4.6 mph - N/A   Overcast
1:00 PM 87 °F - 71 °F 51% 29.85 in - Calm Calm - -  
1:00 PM 86.0 °F 89.4 °F 68.0 °F 55% 29.85 in 15.0 mi SW 5.8 mph - N/A   Overcast
2:00 PM 87.8 °F 91.4 °F 68.0 °F 52% 29.84 in 15.0 mi WSW 2.3 mph - N/A   Overcast
3:00 PM 89.6 °F 92.2 °F 66.2 °F 46% 29.83 in 15.0 mi WSW 4.6 mph - N/A   Overcast
4:00 PM 89.6 °F 93.4 °F 68.0 °F 49% 29.82 in 15.0 mi West 5.8 mph - N/A   Overcast
5:00 PM 91.4 °F 95.4 °F 68.0 °F 46% 29.82 in 15.0 mi NW 13.8 mph - N/A   Mostly Cloudy
6:00 PM 86.0 °F 88.2 °F 66.2 °F 51% 29.83 in 15.0 mi NNW 13.8 mph - N/A   Overcast
7:00 PM 78.8 °F - 66.2 °F 65% 29.87 in 15.0 mi NNE 12.7 mph - N/A   Mostly Cloudy
8:00 PM 77.0 °F - 59.0 °F 54% 29.88 in 15.0 mi NE 13.8 mph - N/A   Mostly Cloudy
9:00 PM 75.2 °F - 57.2 °F 53% 29.92 in 15.0 mi North 9.2 mph - N/A   Mostly Cloudy
10:00 PM 71.6 °F - 50.0 °F 46% 29.93 in 15.0 mi NNE 12.7 mph 19.6 mph N/A   Mostly Cloudy
11:00 PM 69.8 °F - 50.0 °F 49% 29.95 in 15.0 mi NNE 11.5 mph 19.6 mph N/A   Mostly Cloudy